Regional Weather Roundup
Issued by NWS

Home | Current Version | Previous Version | Graphics & Text | Print | Product List | Glossary On
Versions: 1 2 3 4 5 6 7 8 9 10 11 12 13 14 15 16 17 18 19 20 21 22 23 24 25 26 27
000
ASUS43 KDMX 160407
RWRIA

WEATHER ROUNDUP FOR IOWA
NATIONAL WEATHER SERVICE DES MOINES IA
1100 PM CDT TUE APR 15 2014

NOTE: "FAIR" INDICATES FEW OR NO CLOUDS BELOW 12,000 FEET WITH NO
SIGNIFICANT WEATHER AND/OR OBSTRUCTIONS TO VISIBILITY.

* - THESE STATIONS ARE NOT NWS STATIONS...THUS NOT UNDER NWS
QUALITY CONTROL.  THEY ALSO DO NOT REPORT WEATHER SUCH
AS PRECIPITATION OR FOG.

IAZ001>003-012>014-020>022-031>034-043>046-160500-
   NORTHWEST IOWA

CITY           SKY/WX    TMP DP  RH WIND       PRES   REMARKS
CARROLL *      CLOUDY    36  28  75 SE10      29.92F WCI  28
CHEROKEE *     PTCLDY    37  28  70 SE15G21   29.87F WCI  28
DENISON *      MOCLDY    41  28  60 SE18G26   29.85F
LE MARS *      MOCLDY    41  28  60 SE18      29.81F
ORANGE CITY *  MOCLDY    39  25  56 SE12G20   29.82F WCI  32
SHELDON *      MOCLDY    36  27  69 SE18G24   29.83F WCI  25
SIOUX CITY     MOCLDY    43  30  60 SE16      29.80F
SPENCER        PTCLDY    36  25  64 SE20      29.90F WCI  25
STORM LAKE *   PTCLDY    34  30  86 SE15G21   29.89F WCI  24
$$

IAZ055>058-069>071-079>083-090>094-160500-
   SOUTHWEST IOWA

CITY           SKY/WX    TMP DP  RH WIND       PRES   REMARKS
ATLANTIC *     CLOUDY    43  28  56 S15G23    29.91F
AUDUBON *      CLEAR     39  25  56 SE8       29.92F WCI  34
CLARINDA *     MOCLDY    46  30  53 S12G18    29.95F
COUNCIL BLFS * MOCLDY    45  32  61 SE21G29   29.86F
CRESTON *      PTCLDY    39  28  65 SE15G21   29.96F WCI  31
HARLAN  *      CLEAR     43  30  61 S14       29.92F
LAMONI         MOCLDY    43  28  55 SE15G23   30.00F
RED OAK *      MOCLDY    45  30  57 S15       29.92S
SHENANDOAH *   PTCLDY    46  30  53 SE18      29.92F
$$

IAZ047>049-059>061-072>074-084-160500-
   CENTRAL IOWA

CITY           SKY/WX    TMP DP  RH WIND       PRES   REMARKS
AMES           CLEAR     36  23  59 SE12      30.01F WCI  28
ANKENY *       CLOUDY    39  25  56 SE10      30.00F WCI  32
CHARITON *     CLOUDY    39  27  60 SE14G21   30.02F WCI  31
DES MOINES     PTCLDY    41  23  48 SE13      30.01F
GRINNELL*      PTCLDY    33  25  73 E9        30.06S WCI  25
KNOXVILLE *    CLOUDY    37  21  52 SE10      30.03F WCI  30
MARSHALLTOWN   PTCLDY    33  24  69 E12       30.04F WCI  24
NEWTON *       CLOUDY    36  23  60 SE14      30.04F WCI  27
PELLA *        CLEAR     36  25  64 SE7       30.06F WCI  30
PERRY *          N/A     39  25  56 SE15      29.96F WCI  31
$$

IAZ004>006-015-016-023>025-035-036-160500-
   NORTH CENTRAL IOWA

CITY           SKY/WX    TMP DP  RH WIND       PRES   REMARKS
ALGONA *       PTCLDY    34  25  69 SE15      29.97F WCI  24
CLARION *      MOCLDY    34  23  64 SE18G25   29.99F WCI  23
ESTHERVILLE    PTCLDY    33  25  72 SE20      29.93F WCI  21
FORT DODGE *     N/A     34  25  69 SE15G21   29.97F WCI  24
MASON CITY     CLOUDY    33  21  61 SE12      30.04F WCI  24
FOREST CITY *    N/A     32  23  69 SE10G17   30.00F WCI  24
IOWA FALLS *     N/A     34  25  69 E13       30.03F WCI  25
$$

IAZ007>011-017>019-026>030-037>042-050>054-066-160500-
   NORTHEAST IOWA

CITY           SKY/WX    TMP DP  RH WIND       PRES   REMARKS
CEDAR RAPIDS   CLEAR     29  18  63 E8        30.11S WCI  21
CHARLES CITY * MOCLDY    32  19  59 E10       30.07F WCI  24
CLINTON *      CLEAR     25  19  80 E5        30.19S WCI  19
DECORAH *      CLOUDY    32  18  55 SE6       30.09F WCI  26
DUBUQUE        CLEAR     30  17  58 SE7       30.14S WCI  23
MONTICELLO *   CLEAR     30  21  69 E3        30.14S
OELWEIN *      CLEAR    N/A N/A N/A E9        30.10F
WATERLOO       CLEAR     29  20  69 E9        30.07F WCI  20
$$

IAZ064-065-067-068-078-160500-
   EAST CENTRAL IOWA

CITY           SKY/WX    TMP DP  RH WIND       PRES   REMARKS
DAVENPORT      CLEAR     31  17  56 E7        30.16S WCI  24
IOWA CITY      CLEAR     32  17  54 SE6       30.15R WCI  26
MT. PLEASANT * CLEAR     33  23  68 SE8       30.13F WCI  26
MUSCATINE *    CLEAR     32  25  74 CALM      30.16R
QUAD CITIES    CLEAR     28  19  69 E5        30.16S WCI  23
$$

IAZ062-063-075>077-085>089-095>099-160500-
   SOUTHEAST IOWA

CITY           SKY/WX    TMP DP  RH WIND       PRES   REMARKS
BURLINGTON     CLEAR     36  22  56 SE6       30.14S WCI  31
FAIRFIELD *    CLEAR     32  21  64 SE8       30.11F WCI  25
FORT MADISON * CLEAR     37  25  60 SE6       30.15R WCI  33
KEOKUK *       CLEAR     39  21  48 SE6       30.14S WCI  35
OSKALOOSA *      N/A     36  25  64 SE10      30.07F WCI  28
CENTERVILLE *  CLEAR     39  27  60 SE13      30.07F WCI  32
OTTUMWA        PTCLDY    34  23  64 SE10      30.07F WCI  26
WASHINGTON *   CLEAR     32  23  69 SE9       30.13S WCI  24
$$

ABBREVIATIONS USED IN REMARKS
   TC - TEMPERATURES IN CELSIUS
  WCI - WIND CHILL INDEX
   HX - HEAT INDEX
  VSB - VISIBILITY
$$




USA.gov is the U.S. government's official web portal to all federal, state and local government web resources and services.